Flag for New Zealand Weather past 2 weeks in Christchurch, New Zealand

Now
43 °F

Quite cool.


Feels Like: 43 °F
Forecast: 54 / 64 °F
Wind: 2 mph from Northeast

Location: Christchurch Airport

Current Time: Aug 1, 2014 at 2:43:03 AM

Latest Report: Aug 1, 2014 at 2:00 AM


Visibility: N/A

Pressure: 29.80 "Hg

Humidity: 81%

Dew point: 37 °F

Location of ChristchurchLocation

Historic Weather in Christchurch — Graph

°F

Christchurch temperature yesterday

Maximum temperature yesterday: 70 °F (at 2:00 PM)
Minimum temperature yesterday: 46 °F (at 11:30 PM)
Average temperature yesterday: 59 °F

Past Weeks' High & Low Weather Summary

 TemperatureHumidityPressure
High70 °F (Jul 31, 2:00 PM)100% (Jul 17, 6:00 PM)30.24 "Hg (Jul 17, 6:00 PM)
Low25 °F (Jul 25, 5:30 AM)27% (Jul 31, 3:30 AM)29.50 "Hg (Jul 30, 7:00 PM)
Average43 °F80%29.88 "Hg
* Reported Jul 17 1:00 AM — Aug 1 1:30 AM, Christchurch, Weather by CustomWeather, © 2014

Note: Actual official high and low records may vary slightly from our data, if they occured in-between our weather recording intervals... More about our weather records

Advertising

Christchurch weather history for previous 24 hours

 ConditionsComfort  
Time TempWeatherWind HumidityBarometerVisibility
1:30 AM
Aug 1
43 °FQuite cool.3 mph87%29.80 "HgN/A
1:00 AM46 °FCool.1 mph82%29.83 "HgN/A
12:30 AM46 °FCool.3 mph76%29.83 "HgN/A
12:00 AM45 °FQuite cool.2 mph81%29.83 "HgN/A
11:30 PM
Jul 31
46 °FCool.No wind76%29.83 "HgN/A
11:00 PM50 °FCool.5 mph67%29.83 "HgN/A
10:30 PM48 °FCool.5 mph71%29.83 "HgN/A
10:00 PM50 °FCool.6 mph67%29.83 "HgN/A
9:30 PM50 °FCool.7 mph71%29.83 "HgN/A
9:00 PM52 °FCool.2 mph67%29.83 "HgN/A
8:30 PM54 °FCool.2 mph63%29.83 "HgN/A
8:00 PM52 °FCool.8 mph67%29.83 "HgN/A
7:30 PM52 °FCool.5 mph67%29.83 "HgN/A
7:00 PM57 °FRefreshingly cool.6 mph55%29.83 "HgN/A
6:30 PM61 °FRefreshingly cool.7 mph48%29.80 "HgN/A
6:00 PM63 °FMild.10 mph45%29.80 "HgN/A
5:30 PM64 °FMild.12 mph43%29.80 "HgN/A
5:00 PM66 °FMild.7 mph40%29.80 "HgN/A
4:30 PM68 °FMild.8 mph38%29.80 "HgN/A
4:00 PM68 °FMild.6 mph40%29.77 "HgN/A
3:30 PM68 °FMild.16 mph40%29.77 "HgN/A
3:00 PM68 °FMild.24 mph38%29.74 "HgN/A
2:30 PM68 °FMild.17 mph35%29.77 "HgN/A
2:00 PM70 °FMild.5 mph35%29.77 "HgN/A
1:30 PM68 °FMild.8 mph35%29.74 "HgN/A
1:00 PM68 °FMild.8 mph43%29.74 "HgN/A
12:30 PM68 °FMild.5 mph35%29.77 "HgN/A
12:00 PM66 °FMild.10 mph40%29.77 "HgN/A
11:30 AM66 °FMild.5 mph43%29.77 "HgN/A
11:00 AM63 °FMild.7 mph49%29.77 "HgN/A
10:30 AM63 °FMild.6 mph49%29.77 "HgN/A
10:00 AM63 °FMild.6 mph45%29.77 "HgN/A
9:30 AM61 °FRefreshingly cool.7 mph45%29.77 "HgN/A
9:00 AM59 °FRefreshingly cool.8 mph45%29.77 "HgN/A
8:30 AM61 °FRefreshingly cool.16 mph39%29.74 "HgN/A
8:00 AM55 °FRefreshingly cool.10 mph44%29.74 "HgN/A
7:30 AM54 °FCool.6 mph44%29.74 "HgN/A
7:00 AM52 °FCool.8 mph47%29.71 "HgN/A
6:30 AM54 °FCool.3 mph44%29.71 "HgN/A
5:30 AM55 °FRefreshingly cool.10 mph38%29.71 "HgN/A
5:00 AM52 °FCool.6 mph44%29.71 "HgN/A
4:30 AM57 °FRefreshingly cool.12 mph33%29.74 "HgN/A
4:00 AM57 °FRefreshingly cool.16 mph31%29.71 "HgN/A
3:30 AM59 °FRefreshingly cool.17 mph27%29.68 "HgN/A
3:00 AM55 °FRefreshingly cool.9 mph36%29.71 "HgN/A
2:30 AM57 °FRefreshingly cool.12 mph36%29.71 "HgN/A
2:00 AM57 °FRefreshingly cool.12 mph36%29.71 "HgN/A
Weather by CustomWeather, © 2014

See weather overviewHow to use our weather pages